Satellite: MET-3/5
Catalog number: 21655
Epoch time:      08234.90659237
Element set:     476
Inclination:      082.5524 deg
RA of node:       057.9444 deg
Eccentricity:    0.0012755
Arg of perigee:   204.4657 deg
Mean anomaly:     155.5861 deg
Mean motion:   13.17017500 rev/day
Decay rate:        5.1e-07 rev/day^2
Epoch rev:           81823
Checksum:              304

Satellite: MET-2/21
Catalog number: 22782
Epoch time:      08233.93074964
Element set:    0230
Inclination:      082.5432 deg
RA of node:       060.2083 deg
Eccentricity:    0.0023984
Arg of perigee:   107.3514 deg
Mean anomaly:     253.0296 deg
Mean motion:   13.83630541 rev/day
Decay rate:        7.3e-07 rev/day^2
Epoch rev:           75608
Checksum:              287

Satellite: OKEAN-4
Catalog number: 23317
Epoch time:      08234.85922110
Element set:     673
Inclination:      082.5362 deg
RA of node:       253.7884 deg
Eccentricity:    0.0020347
Arg of perigee:   271.3060 deg
Mean anomaly:     088.5824 deg
Mean motion:   14.82629983 rev/day
Decay rate:       1.42e-06 rev/day^2
Epoch rev:           74801
Checksum:              303

Satellite: NOAA-14
Catalog number: 23455
Epoch time:      08233.73942774
Element set:    0275
Inclination:      098.9427 deg
RA of node:       306.0074 deg
Eccentricity:    0.0008755
Arg of perigee:   326.0475 deg
Mean anomaly:     034.0121 deg
Mean motion:   14.13747715 rev/day
Decay rate:        9.4e-07 rev/day^2
Epoch rev:           70347
Checksum:              304

Satellite: SICH-1
Catalog number: 23657
Epoch time:      08233.71274941
Element set:    0472
Inclination:      082.5263 deg
RA of node:       035.8444 deg
Eccentricity:    0.0022171
Arg of perigee:   268.1889 deg
Mean anomaly:     091.6760 deg
Mean motion:   14.81598406 rev/day
Decay rate:       1.84e-06 rev/day^2
Epoch rev:           69977
Checksum:              333

Satellite: NOAA-15
Catalog number: 25338
Epoch time:      08233.68758389
Element set:    0591
Inclination:      098.5589 deg
RA of node:       223.9200 deg
Eccentricity:    0.0010027
Arg of perigee:   209.0839 deg
Mean anomaly:     150.9753 deg
Mean motion:   14.24720331 rev/day
Decay rate:      -1.54e-06 rev/day^2
Epoch rev:           53398
Checksum:              321

Satellite: RESURS
Catalog number: 25394
Epoch time:      08234.65842336
Element set:       3
Inclination:      098.3830 deg
RA of node:       275.6191 deg
Eccentricity:    0.0002239
Arg of perigee:   029.6034 deg
Mean anomaly:     330.5270 deg
Mean motion:   14.24168079 rev/day
Decay rate:        2.5e-07 rev/day^2
Epoch rev:           52576
Checksum:              286

Satellite: FENGYUN1
Catalog number: 25730
Epoch time:      08233.94992950
Element set:    0601
Inclination:      098.7251 deg
RA of node:       207.5485 deg
Eccentricity:    0.0021418
Arg of perigee:   349.1614 deg
Mean anomaly:     010.9092 deg
Mean motion:   14.07753651 rev/day
Decay rate:       1.51e-06 rev/day^2
Epoch rev:           47807
Checksum:              297

Satellite: OKEAN-0
Catalog number: 25860
Epoch time:      08234.78118634
Element set:     451
Inclination:      097.7547 deg
RA of node:       222.4418 deg
Eccentricity:    0.0001895
Arg of perigee:   066.2426 deg
Mean anomaly:     293.8976 deg
Mean motion:   14.73532846 rev/day
Decay rate:        1.8e-07 rev/day^2
Epoch rev:           48905
Checksum:              330

Satellite: NOAA-16
Catalog number: 26536
Epoch time:      08233.66801489
Element set:    0065
Inclination:      099.1615 deg
RA of node:       224.2721 deg
Eccentricity:    0.0011286
Arg of perigee:   047.9798 deg
Mean anomaly:     312.2311 deg
Mean motion:   14.12495297 rev/day
Decay rate:       2.50e-06 rev/day^2
Epoch rev:           40787
Checksum:              311

Satellite: NOAA-17
Catalog number: 27453
Epoch time:      08233.83685994
Element set:    0059
Inclination:      098.5291 deg
RA of node:       296.5761 deg
Eccentricity:    0.0010690
Arg of perigee:   280.0174 deg
Mean anomaly:     079.9778 deg
Mean motion:   14.23996494 rev/day
Decay rate:       1.27e-06 rev/day^2
Epoch rev:           32000
Checksum:              342

Satellite: NOAA-18
Catalog number: 28654
Epoch time:      08233.78655421
Element set:    0548
Inclination:      098.8690 deg
RA of node:       173.9297 deg
Eccentricity:    0.0015009
Arg of perigee:   128.1571 deg
Mean anomaly:     232.0963 deg
Mean motion:   14.11185075 rev/day
Decay rate:      -1.37e-06 rev/day^2
Epoch rev:           16758
Checksum:              330

/EX
SB KEPS @ AMSAT  $ORB08234.M
Orbital Elements  08234.MISC

HR AMSAT ORBITAL ELEMENTS FOR MANNED AND MISCELLANEOUS SATELLITES
FROM WA5QGD FORT WORTH,TX August 21, 2008
Send Subscribe/unsubscribe to KEPS at 
http://www.amsat.org/mailman/listinfo/keps
BID: ORB08234.M
TO ALL RADIO AMATEURS BT

Satellite: HUBBLE
Catalog number: 20580
Epoch time:      08233.53397704
Element set:    0218
Inclination:      028.4694 deg
RA of node:       263.5273 deg
Eccentricity:    0.0003528
Arg of perigee:   348.4868 deg
Mean anomaly:     011.5639 deg
Mean motion:   15.00400612 rev/day
Decay rate:       2.89e-06 rev/day^2
Epoch rev:           80465
Checksum:              295

